CALSPHERE 4A

Last updated on Wed Sep 09 2026 00:03:47 GMT+0000 (Coordinated Universal Time)

1 01520U 65065H 26251.49228604 .00000079 00000+0 13421-3 0 9990 2 01520 89.8915 121.6518 0068176 227.7856 208.2251 13.36290228973835
UTC large
Height (km)
Speed (km/s)
/
Latitude / Longitude
Inclination (degrees)
Orbital Period (minutes)
Azimuth
Elevation
Range (km)
Doppler Factor

Next 0 passes for location: London (51.5072 / 0.1276)

No passes found over London.
CALSPHERE 4A